Regional Weather Roundup
Issued by NWS

Home | Current Version | Previous Version | Text Only | Print | Product List | Glossary On
Versions: 1 2 3 4 5 6 7 8 9 10 11 12 13 14 15 16 17 18 19 20 21 22 23 24 25 26 27 28 29 30 31 32 33 34 35 36 37 38 39 40 41 42 43 44 45 46 47 48 49 50
000
ASHW40 PHFO 161743
RWRHI

WEATHER ROUNDUP FOR HAWAII
NATIONAL WEATHER SERVICE HONOLULU HI
700 AM HST SAT DEC 16 2017

THIS IS AN AUTOMATED REPORT THAT HAS NOT BEEN QUALITY CONTROLLED.

NOTE..."FAIR" INDICATES FEW OR NO CLOUDS BELOW 12,000 FEET WITH NO
SIGNIFICANT WEATHER AND/OR OBSTRUCTIONS TO VISIBILITY.

* - THESE SITES REPORT LIMITED FIELDS
# - BUOY DATA PROVIDED BY PACIFIC ISLANDS OCEAN OBSERVING SYSTEM.

HIZ001>004-161800-
KAUAI-NIIHAU-

CITY           SKY/WX    TMP DP  RH WIND       PRES   REMARKS
LIHUE APT      CLEAR     61  61 100 W7        29.85S
PORT ALLEN*      N/A     63 N/A N/A N5          N/A
POIPU*           N/A     61 N/A N/A N2          N/A
PRINCEVILLE*   NOT AVBL
KOKOLE POINT*  NOT AVBL
MOLOAA DAIRY*    N/A     64  63  94 CALM        N/A
WAIMEA HTS*      N/A     66  59  77 VRB3        N/A
PUU OPAE*        N/A     57  57 100 NE3         N/A
PUU LUA*       NOT AVBL
MAKAHA RIDGE*    N/A     61  59  94 E2G8        N/A
$$

HIZ005>011-161800-
OAHU-

CITY           SKY/WX    TMP DP  RH WIND       PRES   REMARKS
HONOLULU       PTCLDY    66  60  81 NW3       29.84R
KALAELOA       CLEAR     63  61  93 N5        29.85R
KANEOHE MCB    PTCLDY    66  64  93 S3        29.81R
WHEELER FIELD  FAIR      60  59  99 NW6       29.86R
BELLOWS*         N/A    N/A N/A N/A W6          N/A
KAHUKU*          N/A    N/A N/A N/A SW3         N/A
WHEELER*         N/A    N/A N/A N/A N1          N/A
WAIANAE HARBOR   N/A    N/A N/A N/A E3          N/A
DILLINGHAM*    NOT AVBL
KAHUKU TRN*      N/A     64  61  88 NE3G9       N/A
KAWAILOA*        N/A    N/A N/A N/A W2G9        N/A
KII*             N/A     66  64  94 SW5         N/A
MAKUA RANGE*     N/A     64  59  82 W6          N/A
OAHU FOREST NW   N/A     63  59  88 N3          N/A
SCHOFIELD BRK*   N/A     66  64  94 MISG        N/A
SCHOFIELD S*   NOT AVBL
WAIANAE VLY*     N/A     61  59  94 NW6         N/A
KUAOKALA*        N/A     64  61  88 E8G17       N/A
HONOULIUULI*   NOT AVBL
MOKUOLOE IS*   NOT AVBL
PALEHUA*         N/A     61  57  88 NW2         N/A
WAIAWA PHB*    NOT AVBL
$$

HIZ012>013-161800-
MOLOKAI-

CITY           SKY/WX    TMP DP  RH WIND       PRES   REMARKS
MOLOKAI AIRPT  NOT AVBL
KALAUPAPA      NOT AVBL
MAKAPULAPAI*     N/A     64  61  88 S5          N/A
MOLOKAI 1*     NOT AVBL
PUU ALII*        N/A     45  45 100 CALM        N/A
$$

HIZ016-161800-
KAHOOLAWE-

CITY           SKY/WX    TMP DP  RH WIND       PRES   REMARKS
KAHOOLAWE*     NOT AVBL
HAKIOAWA*        N/A     63  61  94 MISG      30.27R
HONOKANAIA*    NOT AVBL
KANELOA*         N/A     64  61  88 W5        29.89R
KEALIALALO*    NOT AVBL
LUA MAKIKA*    NOT AVBL
$$

HIZ014>015-161800-
LANAI-

CITY           SKY/WX    TMP DP  RH WIND       PRES   REMARKS
LANAI CITY     FAIR      62  61  96 NW3       29.89R
LANAI 1*       NOT AVBL
$$

HIZ017>028-161800-
MAUI-

CITY           SKY/WX    TMP DP  RH WIND       PRES   REMARKS
KAHULUI        MOCLDY    67  65  93 S16       29.83R
KAPALUA-W MAUI MOCLDY    66  64  94 SE7       29.84R
HANA AIRPORT   PTCLDY    59  59 100 CALM      29.86R
HANA*            N/A     61 N/A N/A S3          N/A
HALEAKALA SUMM   N/A     37  37 100 SW12        N/A  WCI  30
MAALAEA BAY*     N/A     66 N/A N/A SW8         N/A
HALEAKALA*     NOT AVBL
KAUPO GAP*     NOT AVBL
KULA 1*          N/A     46  43  87 SE3G9       N/A
$$

HIZ023>026-161800-
BIG ISLAND OF HAWAII COAST AND LOWER SLOPES-

CITY           SKY/WX    TMP DP  RH WIND       PRES   REMARKS
KAILUA KONA    PTCLDY    70  56  61 SE8       29.84R
HILO           CLEAR     58  51  78 S5        29.86R
HONOKAA*         N/A     61 N/A N/A VRB1        N/A
KAWAIHAE MWT*    N/A     72 N/A N/A N7          N/A
KAWAIHAE*        N/A     72 N/A N/A NE3       29.85R
SOUTH POINT*     N/A     61 N/A N/A W7          N/A
UPOLU AIRPORT* NOT AVBL
KAMUELA*       SUNNY     55  54  94 CALM      29.94R
HAKALAU*         N/A     37  34  87 SW6         N/A
KALOKO-HONOKO*   N/A     68  57  68 E5        29.84R
PALI 2*          N/A     54  48  82 S6G14       N/A
KEALAKOMO*       N/A     63  55  77 NW3         N/A
KAUPULEHU*       N/A     63  54  72 SE8         N/A
KAPAPALA*        N/A     54  51  90 N3G10       N/A
LOWER KAHUKU*    N/A     50  48  93 N2G8        N/A
PUHE CS*         N/A     70  55  60 N3          N/A
PUHO CS*         N/A     67  52  57 E3          N/A
PTA KEAMUKU*     N/A     52  50  93 E6          N/A
WAIKOLOA*        N/A     63  57  82 E7          N/A
$$

HIZ027>028-161800-
BIG ISLAND OF HAWAII INTERIOR AND SUMMMITS-

CITY           SKY/WX    TMP DP  RH WIND       PRES   REMARKS
BRADSHAW FIELD CLEAR     40  38  91 SE5       30.11R
MK VISITOR CEN   N/A     45  25  45 S2          N/A
MAUNA KEA*       N/A     25  14  63 SW23        N/A  WCI  10
MAUNA LOA*       N/A    N/A N/A N/A MISG        N/A
MAUNA LOA 1*   NOT AVBL
PTA KIPUKA*      N/A     61  59  94 NW5         N/A
PTA RANGE 17*    N/A     41  37  87 W6          N/A
PTA WEST*        N/A     46  39  76 SE12G20     N/A
NENE CABIN*      N/A    N/A N/A N/A VRB5        N/A
AHUMOA*          N/A     46  39  76 E7G13       N/A
PTA PORTABLE*  NOT AVBL
PUU MALI*        N/A     46 N/A N/A SE3G12      N/A
$$

HIC003-161800-
NORTHWEST ISLANDS-

CITY           SKY/WX    TMP DP  RH WIND       PRES   REMARKS
MIDWAY ISLAND  CLOUDY    72  70  94 W10G17    30.08R
MIDWAY NOS*      N/A     72 N/A N/A MISG      30.05S
FRENCH FRIGATE NOT AVBL
$$

PHZ110>124-180-161800-
BUOY REPORTS

STATION/POSITION TIME  TEMP    WIND        PRES    WAVE   SWELL
                       AIR SEA DIR/SP/G            HT/PER HT/DIR
                 (UTC) (F)     (DEG/KT/KT) (MB)    (FT/S) (FT/D)
BUOY 51001       1720   71      40/ 16/ 25 1013.7
BUOY 51101       1650   70 74   20/ 21/ 27 1012.4S   9/ 8   5/360
BUOY 51100       NOT AVBL
BUOY 51002       1730   75      20/  6/  8 1011.1R
BUOY 51003       1650   73 77   10/ 10/ 14 1011.0R   8/ 8   8/ 30
BUOY 51004       1730   74      20/ 10/ 12 1011.9R
WAIMEA BAY#      1702      74                N/A    10/11   5
MOKAPU POINT#    1704      76                N/A    10/10   3/ 20
LANAI#           NOT AVBL
BARBERS PT 2#    NOT AVBL
PAUWELA#         1730      77                N/A    10/11   5/340
HILO#            1727      74                N/A     9/13   5/350
KANEOHE BAY#     NOT AVBL
KANEOHE BAY 2#   NOT AVBL
HANALEI#         1722      76                N/A    10/10   3/ 50
KAHULUI HARBOR   1706   68 74  190/  9/ 14 1010.1
HONOLULU HARBOR  1706   67 77  320/  4/  5 1011.3
PEARL HARBOR#    1700      77                N/A     1/ 9
KILO NALU        NOT AVBL
HILO HARBOR      1718   61 76  200/  6/  8 1010.9
MOKUOLOE         1636   65 72  190/  1/  2 1010.2R
NAWILIWILI       1706   63 76  280/  4/  5 1010.8
WHOTS BUOY       NOT AVBL
BUOY 51028       NOT AVBL
$$

......................KEY........................................
  SKY/WX - SKY CONDITIONS/PRESENT WEATHER
  TMP    - TEMPERATURE IN FAHRENHEIT
  DWPT   - DEWPOINT IN FAHRENHEIT
  RH     - RELATIVE HUMIDITY IN PERCENT
  WIND   - DIRECTION AND SPEED /MPH FOR ISLANDS...KTS FOR BUOYS/
  PRES   - MEAN SEA LEVEL PRESSURE IN INCHES OF HG
  VSB    - VISIBILITY IN MILES
  HX     - HEAT INDEX
  WCI    - WIND CHILL INDEX
  VRB    - VARIABLE WIND DIRECTION
  N/A    - NOT AVAILABLE




USA.gov is the U.S. government's official web portal to all federal, state and local government web resources and services.